Temp
62 62 62 62 62 62 62 62 62 62 62 62 62 62 62 62 62 65 76 84 82 80 82 87 88 87 83 82 84 80 67 64 69 72 74 76 76 85 87 81 83 83 79 80 82
61 61 61 62 62 62 62 62 62 62 62 62 62 62 62 62 65 73 83 81 81 80 86 84 83 83 79 81 81 72 64 69 75 78 77 83 82 82 79 77 75 77 79 80 79
61 61 61 61 62 62 61 61 61 61 61 61 62 62 62 62 71 81 80 81 80 81 83 84 84 82 77 76 77 70 68 75 80 81 83 78 82 82 77 71 74 73 73 76 76
60 60 60 61 61 61 61 61 61 61 61 61 62 62 62 63 68 86 80 80 80 81 84 83 83 77 74 75 80 72 80 80 81 81 81 81 82 80 81 79 82 81 77 77 75
59 59 60 60 60 61 61 61 60 60 61 61 62 63 61 68 79 84 81 80 81 83 82 81 78 76 72 75 79 76 80 82 84 81 83 84 82 81 80 81 83 83 80 76 76
59 59 59 59 60 60 60 60 60 60 61 61 62 63 64 67 88 85 84 82 83 81 81 81 81 82 76 76 74 81 82 82 82 84 84 82 80 84 78 83 81 81 79 78 77
59 59 59 59 59 59 59 59 59 60 61 62 63 67 67 77 88 84 80 80 83 82 81 86 84 80 77 75 80 79 74 79 79 78 79 83 74 76 80 82 79 79 80 80 79
58 58 58 58 58 59 58 58 59 61 62 63 64 63 67 86 83 85 79 84 83 82 83 87 84 79 75 80 77 72 68 65 79 79 81 81 68 76 81 80 77 79 80 80 77
57 57 57 57 57 57 57 57 60 63 64 65 60 63 70 85 82 85 84 84 85 85 83 95 83 72 76 67 64 64 60 64 71 79 79 77 70 77 81 80 76 78 79 79 77
57 57 57 57 57 56 56 58 61 62 65 71 75 64 75 80 86 87 86 86 83 82 82 79 70 65 63 63 56 60 61 64 66 76 76 72 72 74 79 79 77 78 77 78 77
57 57 56 56 56 56 53 62 68 66 65 67 68 72 78 86 88 85 89 85 81 78 65 70 65 59 64 67 70 68 65 64 71 78 74 69 70 74 78 77 76 75 74 75 77
56 56 56 56 55 55 50 64 65 63 61 74 75 76 81 83 77 83 90 77 74 66 68 66 60 70 73 73 71 68 65 66 71 76 71 68 72 71 74 78 79 77 73 75 74
56 56 55 55 55 56 58 64 69 62 58 68 74 74 77 80 77 79 85 80 72 67 67 62 70 78 76 72 71 65 62 65 66 71 71 68 66 65 71 74 77 75 76 78 76
56 55 55 53 58 54 62 68 66 65 52 63 67 76 79 82 75 88 87 83 74 70 70 68 75 76 74 73 72 60 73 72 69 63 58 65 53 61 63 65 70 73 75 76 75
55 55 54 54 48 57 67 63 65 68 44 71 69 83 73 77 76 79 86 80 72 72 69 67 70 73 72 75 76 70 74 69 68 60 55 59 54 59 63 62 66 71 75 76 76
55 54 54 51 47 56 60 61 67 53 45 66 74 70 69 70 75 79 79 82 80 72 70 71 78 77 77 79 77 75 69 63 56 53 49 56 55 56 60 63 67 72 74 75 74
54 53 51 54 58 57 59 63 51 44 65 65 62 64 64 66 70 73 71 68 65 58 57 68 71 77 81 70 72 68 57 47 48 47 48 54 54 57 65 68 70 68 71 68 69
53 52 51 52 50 57 60 57 42 58 58 67 67 63 65 66 66 70 67 64 68 67 60 56 58 72 76 71 67 61 59 49 42 43 49 56 50 59 67 70 70 72 71 69 70
52 47 47 53 54 55 57 45 49 56 67 66 65 59 58 66 67 66 64 65 70 69 61 55 60 74 77 78 75 62 57 60 50 44 47 50 58 66 66 66 69 67 69 67 67
44 47 52 59 57 57 52 46 52 63 68 65 56 60 55 61 63 62 61 69 69 73 71 64 57 66 77 75 73 69 68 56 50 44 41 49 50 54 59 60 63 63 63 66 68
47 53 61 59 59 54 46 47 56 66 69 61 57 59 61 60 62 58 62 70 74 72 69 61 58 63 70 63 65 64 58 54 52 49 45 43 51 58 61 61 62 64 65 65 67
45 50 61 61 51 41 46 52 59 63 65 64 62 62 62 63 59 59 62 70 75 72 66 65 57 53 62 69 71 66 60 56 51 49 46 47 51 63 62 64 64 64 65 65 67
44 45 60 62 45 43 48 57 61 60 62 61 62 65 65 61 56 63 65 74 73 72 66 65 54 50 57 62 66 65 62 56 51 49 47 48 52 61 61 62 65 64 64 66 67
46 49 53 53 48 49 46 51 56 67 65 66 64 63 61 59 61 59 65 73 74 69 67 66 52 56 54 57 61 60 64 63 56 49 49 52 55 57 61 61 63 65 64 63 67
47 47 49 46 50 50 49 52 53 55 63 64 57 62 59 51 56 56 61 65 71 67 64 62 55 54 57 65 66 64 64 65 58 56 54 56 55 57 59 59 62 63 63 63 65
46 46 50 46 48 50 49 50 55 58 57 60 57 62 59 54 56 53 56 57 56 65 59 58 55 55 55 65 66 64 67 66 64 62 59 57 54 55 57 60 61 61 62 63 64
45 49 49 47 46 46 49 53 56 59 63 65 63 59 59 61 64 61 59 59 56 54 58 56 54 52 50 59 62 56 61 61 60 58 55 54 56 57 56 60 60 61 62 63 65
MSLP
1017.36 1017.03 1016.87 1016.46 1015.95 1015.67 1015.26 1014.61 1014.02 1013.81 1013.22 1012.99 1012.58 1012.25 1011.53 1011.10 1010.10 1010.01 1008.64 1006.58 1006.39 1006.36 1006.33 1005.93 1005.48 1005.19 1005.19 1005.17 1005.33 1006.13 1007.34 1007.59 1007.14 1006.44 1006.08 1005.96 1006.11 1006.38 1006.56 1007.22 1007.59 1008.00 1008.56 1008.80 1010.53
1017.54 1017.22 1017.00 1016.40 1015.82 1015.59 1015.15 1014.49 1014.06 1013.62 1013.20 1012.81 1012.33 1012.01 1011.56 1011.26 1010.52 1009.02 1006.49 1006.20 1006.24 1006.49 1006.43 1006.36 1006.15 1005.81 1005.80 1005.76 1005.56 1006.17 1007.06 1006.56 1005.91 1005.48 1005.42 1005.57 1006.19 1006.02 1006.84 1007.53 1008.23 1008.40 1009.27 1009.92 1010.88
1017.73 1017.26 1016.81 1016.47 1015.97 1015.43 1015.07 1014.56 1014.04 1013.58 1013.17 1012.68 1012.10 1011.75 1011.38 1011.23 1010.27 1007.24 1006.00 1006.10 1006.35 1006.49 1006.59 1006.49 1006.19 1006.07 1005.99 1006.07 1006.14 1006.36 1006.45 1005.58 1005.09 1004.97 1005.16 1005.52 1005.99 1006.05 1006.73 1007.56 1007.90 1008.35 1009.59 1010.35 1011.08
1017.79 1017.38 1016.77 1016.34 1016.03 1015.59 1014.99 1014.43 1013.93 1013.46 1013.08 1012.65 1012.07 1011.79 1011.33 1011.20 1009.18 1006.37 1006.00 1006.25 1006.48 1006.44 1006.50 1006.30 1006.13 1006.05 1006.17 1006.32 1006.15 1006.19 1005.50 1005.47 1004.70 1004.40 1004.96 1005.22 1005.34 1005.77 1006.21 1006.50 1006.94 1008.05 1009.30 1009.92 1010.86
1017.93 1017.50 1016.97 1016.48 1015.94 1015.36 1014.74 1014.19 1013.71 1013.30 1013.05 1012.62 1011.99 1011.74 1011.16 1010.15 1007.60 1006.05 1006.13 1006.26 1006.46 1006.44 1006.44 1006.31 1006.23 1006.18 1006.26 1006.52 1006.24 1005.94 1005.26 1004.87 1004.19 1004.61 1004.35 1004.68 1004.82 1005.47 1006.08 1006.27 1007.18 1008.26 1009.10 1009.77 1010.43
1018.02 1017.40 1016.90 1016.50 1015.78 1015.11 1014.48 1013.92 1013.44 1013.10 1012.87 1012.45 1012.01 1011.70 1011.17 1009.04 1006.14 1005.96 1006.14 1006.27 1006.40 1006.44 1006.27 1006.24 1006.15 1005.92 1006.14 1006.22 1006.14 1005.49 1005.11 1004.86 1003.97 1003.81 1003.97 1004.50 1004.76 1005.29 1006.32 1006.73 1007.44 1008.19 1008.84 1009.67 1009.75
1017.93 1017.39 1016.88 1016.25 1015.56 1014.83 1014.20 1013.55 1012.92 1012.57 1012.50 1012.12 1011.94 1011.69 1010.57 1007.53 1006.18 1006.14 1006.18 1006.01 1006.01 1006.24 1006.21 1005.78 1005.79 1005.98 1006.14 1006.30 1006.03 1005.70 1005.47 1004.57 1004.12 1004.13 1004.01 1004.15 1005.09 1005.40 1005.84 1006.56 1007.30 1008.11 1008.69 1009.25 1009.66
1017.94 1017.40 1016.73 1015.94 1015.38 1014.62 1013.76 1012.96 1012.28 1011.95 1011.69 1011.61 1011.72 1011.43 1009.41 1006.48 1006.21 1006.22 1006.28 1005.87 1005.79 1005.91 1005.95 1005.48 1005.41 1005.86 1006.34 1006.37 1006.24 1006.40 1006.04 1005.80 1004.26 1004.11 1003.73 1004.26 1004.90 1005.47 1005.99 1006.39 1007.34 1007.95 1008.61 1009.05 1009.64
1017.85 1017.17 1016.58 1015.84 1015.05 1014.28 1013.36 1012.39 1011.64 1011.21 1011.24 1011.43 1011.55 1010.91 1008.48 1006.39 1006.33 1005.90 1006.00 1006.01 1005.72 1005.46 1005.46 1005.43 1005.51 1006.61 1006.79 1007.31 1007.54 1007.68 1007.15 1006.49 1005.29 1003.87 1004.03 1004.40 1004.91 1005.15 1005.92 1006.38 1007.23 1007.82 1008.48 1008.87 1009.50
1017.70 1017.09 1016.38 1015.69 1014.99 1014.05 1012.93 1011.62 1010.95 1011.09 1011.17 1011.19 1010.88 1010.55 1007.90 1006.39 1005.76 1005.51 1005.56 1005.91 1006.02 1005.99 1005.89 1006.04 1007.15 1007.69 1008.22 1008.30 1008.86 1008.32 1007.75 1006.80 1006.02 1004.42 1004.09 1004.31 1004.61 1005.32 1005.77 1006.22 1006.74 1007.59 1008.34 1008.90 1009.42
1017.76 1017.06 1016.36 1015.71 1014.95 1014.13 1013.06 1011.52 1011.59 1011.32 1010.77 1010.35 1009.84 1009.00 1007.47 1006.36 1005.37 1005.31 1005.34 1005.90 1006.04 1006.53 1007.00 1007.28 1007.97 1008.28 1008.29 1008.28 1007.98 1007.81 1007.46 1007.00 1005.64 1004.61 1004.45 1004.57 1005.11 1005.44 1006.03 1006.88 1007.32 1007.42 1008.08 1008.65 1009.12
1017.84 1017.23 1016.42 1015.54 1014.68 1014.15 1014.05 1013.27 1012.96 1013.14 1011.50 1009.21 1008.67 1008.12 1006.90 1006.70 1006.33 1005.37 1005.24 1006.00 1006.34 1007.00 1007.35 1008.02 1008.02 1007.56 1007.75 1007.70 1007.68 1007.45 1007.16 1006.47 1005.73 1004.95 1004.97 1005.09 1005.41 1006.14 1006.30 1006.02 1006.10 1006.61 1007.78 1008.33 1009.35
1018.03 1017.27 1016.51 1015.40 1014.47 1014.15 1014.03 1012.82 1012.22 1012.13 1011.71 1008.84 1007.63 1006.95 1006.16 1006.35 1006.09 1005.43 1005.39 1005.75 1006.44 1007.04 1007.55 1007.95 1007.15 1006.88 1007.12 1006.88 1007.13 1006.86 1006.75 1006.51 1006.52 1005.88 1005.92 1006.23 1006.65 1006.83 1006.56 1006.31 1006.35 1007.16 1007.48 1008.26 1008.77
1017.87 1017.23 1016.63 1015.25 1014.61 1014.80 1013.46 1012.19 1011.71 1011.54 1011.48 1008.49 1006.89 1005.26 1005.33 1005.46 1005.40 1004.71 1004.86 1005.52 1006.35 1006.77 1007.32 1007.43 1006.60 1006.59 1006.32 1006.27 1006.27 1006.50 1006.39 1006.60 1006.97 1007.32 1007.72 1007.84 1008.90 1007.74 1007.68 1007.06 1007.02 1007.38 1007.74 1008.20 1008.75
1017.65 1017.17 1016.76 1016.47 1016.01 1014.84 1013.10 1012.06 1011.41 1011.37 1010.93 1007.20 1005.82 1004.37 1004.58 1005.02 1004.84 1004.57 1004.53 1005.16 1006.01 1006.52 1006.95 1006.83 1006.36 1006.07 1005.91 1005.46 1005.51 1006.17 1006.23 1007.28 1007.74 1008.52 1009.04 1009.18 1009.53 1008.52 1008.21 1008.19 1007.73 1007.11 1007.10 1007.48 1008.14
1017.29 1017.01 1016.65 1016.24 1015.99 1013.83 1012.89 1012.15 1011.63 1012.05 1009.76 1006.72 1005.15 1004.78 1005.11 1004.94 1004.79 1004.62 1004.74 1005.02 1005.53 1006.46 1006.71 1006.50 1005.90 1005.76 1005.09 1004.73 1005.16 1005.92 1007.06 1008.27 1009.29 1010.06 1010.99 1010.37 1010.26 1009.74 1009.06 1009.18 1008.57 1008.37 1008.81 1009.89 1010.70
1016.63 1016.26 1016.43 1015.98 1014.49 1013.36 1012.86 1012.55 1013.05 1012.11 1009.11 1007.29 1006.00 1005.46 1005.13 1005.09 1005.19 1005.16 1005.39 1005.80 1006.24 1006.91 1007.15 1006.61 1005.90 1005.11 1004.66 1004.93 1005.50 1006.51 1008.47 1010.17 1011.40 1012.09 1011.76 1011.02 1010.72 1010.03 1009.36 1008.91 1008.64 1009.30 1009.92 1011.37 1011.15
1015.85 1015.18 1014.95 1014.57 1013.78 1013.52 1013.41 1013.70 1013.10 1010.96 1009.36 1007.53 1006.56 1005.84 1005.80 1005.69 1005.63 1005.72 1006.07 1006.53 1006.59 1006.87 1007.45 1007.25 1006.34 1005.10 1004.81 1005.04 1005.82 1007.17 1008.59 1010.54 1012.05 1013.14 1012.41 1011.39 1011.15 1009.82 1009.62 1009.13 1009.37 1009.30 1010.61 1010.86 1010.58
1015.20 1014.87 1014.80 1013.05 1013.46 1014.04 1014.16 1014.18 1012.48 1010.88 1009.21 1008.19 1006.98 1006.38 1006.02 1005.70 1005.78 1006.04 1006.36 1006.51 1006.38 1006.59 1007.37 1007.49 1006.68 1005.38 1004.84 1005.00 1005.67 1007.31 1008.77 1009.83 1011.53 1013.18 1013.21 1012.38 1011.29 1010.44 1010.37 1010.65 1010.33 1010.28 1010.84 1011.36 1010.77
1015.79 1015.23 1014.00 1012.57 1013.17 1013.94 1014.32 1013.91 1012.28 1010.62 1009.19 1008.34 1007.78 1006.90 1006.55 1006.07 1006.08 1006.30 1006.37 1005.77 1006.07 1006.16 1006.26 1007.28 1007.08 1005.99 1004.94 1004.98 1005.71 1006.39 1008.00 1009.93 1011.72 1013.20 1013.57 1012.82 1011.98 1011.56 1011.45 1011.58 1011.60 1010.99 1010.56 1011.32 1011.50
1015.88 1015.05 1013.05 1012.79 1013.21 1014.19 1014.67 1013.64 1011.92 1010.28 1009.19 1008.61 1008.01 1007.39 1006.70 1006.28 1006.05 1006.17 1006.21 1005.51 1005.30 1005.71 1006.44 1007.24 1007.60 1006.90 1006.00 1005.81 1005.91 1007.02 1008.13 1010.01 1011.69 1012.84 1013.48 1013.62 1012.23 1010.78 1010.71 1011.07 1011.56 1011.76 1011.48 1011.07 1010.87
1016.44 1015.46 1013.46 1013.35 1014.12 1015.17 1014.70 1013.19 1011.67 1010.46 1009.50 1008.84 1008.24 1007.72 1006.95 1006.31 1006.09 1006.09 1005.89 1005.17 1004.44 1005.11 1006.68 1007.09 1007.88 1008.07 1007.32 1006.23 1006.33 1006.61 1008.05 1009.60 1011.74 1012.98 1013.41 1013.09 1011.71 1010.77 1010.91 1010.95 1011.15 1011.62 1011.80 1010.99 1010.63
1017.63 1016.20 1013.76 1013.46 1014.72 1015.27 1014.27 1013.06 1011.79 1010.65 1009.70 1009.01 1008.35 1007.62 1006.93 1006.54 1006.51 1006.12 1005.45 1004.70 1004.58 1005.13 1005.67 1006.92 1008.00 1008.64 1007.97 1007.35 1006.76 1007.17 1007.87 1009.31 1010.80 1011.72 1012.90 1013.14 1011.83 1011.14 1011.01 1011.04 1011.31 1011.80 1011.89 1011.40 1010.87
1017.87 1016.84 1015.44 1014.75 1014.97 1014.86 1014.41 1013.16 1011.74 1010.13 1009.60 1008.82 1008.23 1007.72 1007.41 1006.94 1006.88 1006.63 1005.84 1005.00 1004.97 1005.27 1005.57 1006.07 1008.15 1008.32 1008.19 1007.71 1007.38 1007.51 1007.94 1008.78 1010.09 1011.58 1012.44 1012.19 1011.61 1011.61 1011.14 1011.20 1010.98 1010.71 1010.82 1011.63 1012.13
1018.09 1017.70 1016.97 1016.13 1015.49 1014.96 1014.41 1013.32 1012.05 1010.96 1009.47 1008.58 1008.33 1008.13 1007.63 1007.80 1007.74 1007.49 1006.79 1006.07 1005.53 1005.91 1006.32 1006.91 1008.24 1008.39 1008.00 1007.39 1007.17 1007.31 1007.80 1008.69 1009.58 1010.49 1011.17 1011.23 1011.88 1011.67 1011.21 1011.27 1011.05 1011.14 1011.19 1011.73 1012.88
1018.73 1018.37 1017.37 1016.67 1015.88 1015.28 1014.34 1013.30 1012.17 1011.02 1010.21 1008.95 1008.57 1008.30 1007.96 1008.20 1008.19 1008.01 1007.66 1007.24 1007.12 1006.85 1007.30 1007.81 1008.90 1008.92 1008.90 1008.14 1007.54 1007.64 1007.83 1008.28 1009.24 1010.12 1010.64 1011.35 1011.93 1011.87 1011.33 1011.42 1011.51 1011.85 1011.87 1011.38 1010.53
1019.24 1018.67 1018.17 1017.21 1016.49 1015.57 1014.72 1013.66 1012.00 1011.16 1009.80 1009.16 1008.89 1008.53 1008.44 1008.27 1008.16 1008.06 1007.93 1007.78 1007.74 1008.05 1008.41 1008.66 1009.25 1010.03 1009.97 1009.17 1008.52 1008.48 1008.39 1008.64 1009.73 1010.78 1011.18 1011.74 1011.81 1011.75 1011.67 1011.60 1011.55 1012.09 1012.39 1011.96 1011.87
Wind_Speed
16 16 16 16 15 15 16 17 17 17 17 17 17 17 15 15 16 2 5 6 3 4 5 7 4 8 3 3 2 4 4 3 6 3 1 1 3 5 5 10 3 5 6 13 17
16 16 16 17 17 16 16 17 17 17 17 17 17 16 14 12 3 5 8 5 4 5 4 5 6 9 5 4 4 5 3 4 1 2 3 7 4 8 5 5 3 9 14 19 19
17 17 18 18 18 18 16 16 16 16 16 17 17 16 13 8 3 4 4 7 2 4 1 1 3 1 3 2 1 1 4 3 6 6 2 4 3 2 10 3 6 18 18 19 18
18 18 19 19 19 19 18 18 17 17 16 17 16 15 13 1 2 1 6 3 4 1 0 2 4 4 4 6 2 2 8 4 7 2 5 9 6 6 7 5 12 19 20 18 18
18 18 18 19 19 20 20 20 18 17 16 15 15 13 3 3 6 3 5 4 3 1 1 2 3 2 2 3 4 5 6 7 12 4 7 5 11 6 5 11 17 19 19 19 16
19 19 20 20 20 21 20 20 19 17 15 14 13 11 3 3 1 6 5 4 2 2 1 3 2 3 1 4 1 5 8 7 4 3 2 6 4 7 4 15 18 19 18 16 17
19 20 21 21 22 22 22 21 20 19 14 12 9 3 1 11 4 4 4 2 3 3 3 3 1 3 1 5 1 4 4 6 3 0 1 7 2 4 10 17 19 18 16 15 14
20 21 22 22 23 23 23 23 23 21 13 8 4 1 7 4 1 1 1 6 3 5 4 7 2 3 2 4 7 4 6 5 8 3 5 7 9 3 14 18 17 17 15 14 11
21 22 23 24 24 23 24 26 24 11 3 4 2 1 9 4 2 6 5 3 4 5 3 3 5 3 6 4 7 8 2 4 10 4 4 4 6 5 13 15 15 15 14 14 10
22 23 23 23 24 24 27 24 9 6 2 4 2 3 5 1 4 4 6 2 3 5 6 5 6 4 4 6 3 4 4 5 6 5 2 4 5 5 15 15 17 14 11 11 10
23 23 23 23 23 22 16 6 7 5 3 5 3 4 5 7 3 4 5 4 2 7 2 4 6 3 5 5 4 3 4 6 6 5 5 2 3 5 13 7 8 10 9 9 11
23 23 24 24 23 22 2 4 4 1 10 7 9 7 7 3 4 3 5 4 2 2 2 7 4 9 4 5 6 6 5 6 6 3 0 2 7 2 10 20 18 16 11 12 7
22 22 24 26 26 3 2 3 5 3 2 10 6 6 6 9 8 7 9 5 3 3 3 5 7 3 3 4 4 4 3 3 5 6 6 5 9 5 4 3 5 1 8 10 14
22 21 22 28 3 5 5 8 9 3 6 10 5 10 6 6 5 8 7 6 2 6 6 6 6 4 5 6 7 3 5 2 2 4 2 4 5 6 7 3 6 9 11 11 11
21 20 18 11 5 3 6 11 8 5 3 3 4 1 2 11 3 3 5 4 7 4 6 7 2 7 4 7 5 8 3 2 3 4 2 3 5 9 4 3 5 11 16 12 12
21 18 17 2 1 8 9 10 4 7 7 7 4 4 5 2 2 3 4 4 3 3 3 7 3 5 7 4 4 3 4 7 5 4 4 5 4 7 2 4 7 3 7 9 9
23 18 7 2 4 5 6 5 6 4 5 6 1 1 3 6 4 3 5 4 6 4 2 6 4 5 4 1 3 7 8 5 6 7 6 1 3 8 7 5 4 9 11 14 7
25 19 4 6 3 5 4 6 4 5 6 6 4 0 6 3 3 5 5 4 2 4 3 3 7 2 1 4 6 3 8 8 4 3 6 4 1 7 3 6 8 8 15 9 5
20 2 1 5 9 2 6 3 9 6 4 6 8 0 3 4 2 4 7 8 9 8 8 5 6 3 3 5 8 3 2 4 8 3 3 3 4 6 6 7 7 4 4 10 7
3 3 4 2 7 5 6 7 5 4 5 4 2 1 1 5 7 7 8 6 6 10 6 6 2 3 6 4 4 8 8 3 4 2 2 5 3 5 2 2 3 5 4 4 4
3 3 3 4 3 6 4 7 4 6 4 1 2 4 4 2 7 7 7 5 9 7 6 5 4 7 4 1 7 2 2 8 6 5 6 1 7 7 11 10 9 6 3 2 3
3 3 3 3 5 1 2 5 4 4 4 4 2 5 4 2 2 1 7 9 6 10 11 8 6 4 10 1 3 3 4 6 7 4 2 4 8 4 4 7 8 8 8 4 2
2 3 4 5 2 2 5 5 3 3 5 3 3 2 4 3 1 3 2 3 3 9 11 9 1 2 10 8 4 7 3 6 5 3 3 5 8 2 4 6 8 7 8 9 5
2 3 5 4 1 5 1 5 4 4 6 6 6 3 4 3 4 2 6 3 6 4 9 10 5 8 9 8 4 4 4 4 5 4 4 6 5 5 8 7 6 7 6 2 0
3 1 2 3 3 2 4 3 3 5 4 6 2 4 4 1 3 5 5 7 5 7 4 6 5 3 3 5 4 3 3 4 4 5 5 4 5 5 10 8 7 6 8 5 9
2 3 5 2 4 4 5 4 7 7 5 4 3 3 4 5 5 2 2 5 1 7 4 3 2 3 3 3 4 3 4 4 4 2 1 1 3 7 2 1 3 3 7 8 12
3 2 2 3 5 3 1 4 7 4 3 3 3 5 5 5 6 5 2 2 1 1 3 3 6 4 3 2 4 5 2 3 5 4 2 1 5 4 2 4 7 6 6 9 10
Wind_Direction
3 3 355 350 348 346 340 340 341 339 340 331 328 325 327 326 317 208 254 219 154 315 333 302 6 338 19 5 52 117 67 170 166 162 183 30 142 166 74 129 180 189 134 135 147
359 357 350 348 344 342 340 340 334 336 334 330 326 325 328 332 305 252 255 174 207 11 7 22 348 344 1 348 353 81 80 269 198 156 158 154 210 136 113 163 23 88 97 122 137
356 353 349 345 341 338 337 335 331 331 329 327 327 325 327 331 326 260 180 197 85 60 94 276 278 102 16 336 258 22 204 215 260 213 261 152 178 109 131 218 213 150 143 142 150
354 349 346 341 337 335 332 333 329 325 324 323 321 321 325 321 170 250 202 148 84 156 349 339 352 12 47 351 339 310 270 211 278 256 152 199 160 168 190 200 148 152 149 149 159
350 345 342 338 334 333 331 327 323 318 316 315 317 323 336 337 256 157 164 127 137 104 32 21 38 82 11 282 312 201 260 269 247 176 244 151 197 191 195 132 138 149 151 162 169
347 343 340 336 334 332 328 322 314 308 308 310 310 317 347 301 262 160 163 141 163 145 222 164 257 255 158 278 326 300 279 279 271 279 167 165 230 139 132 139 142 161 167 173 175
345 341 338 335 334 331 324 315 310 305 302 298 298 304 30 239 347 173 176 222 180 181 305 227 284 61 318 317 298 281 289 334 299 325 62 120 14 227 157 156 156 172 178 184 188
342 339 336 336 331 327 320 312 310 304 297 272 246 220 249 258 106 153 182 296 227 236 210 261 229 118 171 300 358 25 43 6 288 17 282 130 253 178 167 157 170 179 185 189 194
341 338 336 334 329 326 318 312 307 305 215 158 136 102 272 303 188 228 188 253 323 313 297 300 55 57 19 57 9 7 322 311 309 231 175 148 245 185 178 170 177 183 188 191 196
341 336 334 333 326 324 321 305 291 303 157 188 250 15 274 226 237 199 204 235 278 325 8 39 52 53 39 64 211 276 328 287 264 303 53 177 234 165 186 180 187 185 187 191 189
340 334 332 329 325 326 341 1 14 351 37 224 212 267 271 302 253 221 159 153 116 52 64 357 51 233 225 208 214 264 230 242 259 291 204 228 279 170 190 208 200 190 179 183 196
338 333 330 326 323 323 304 56 67 260 305 248 241 254 256 100 321 285 111 144 113 201 74 15 251 241 227 222 239 239 254 297 291 333 291 52 287 89 178 210 199 189 168 176 136
335 333 329 324 318 330 304 246 331 320 196 292 218 214 215 139 207 243 144 163 149 163 170 166 240 348 199 285 293 233 221 274 228 345 13 29 323 348 294 283 195 143 151 169 163
332 333 332 325 10 330 284 308 320 225 44 275 246 258 177 145 269 207 180 142 188 209 183 222 273 264 241 246 160 276 191 227 57 72 259 64 267 312 336 2 105 142 156 168 160
328 330 331 331 295 313 305 322 311 58 343 251 219 335 235 150 202 215 187 79 187 199 90 253 310 359 314 222 149 224 133 31 99 98 52 347 75 271 8 357 185 177 179 178 170
323 324 329 117 235 246 309 308 45 47 252 318 184 165 112 163 264 54 111 98 160 171 228 238 262 231 219 254 171 95 79 44 55 62 34 287 117 298 282 321 317 69 54 74 41
320 314 297 289 230 324 315 40 52 149 327 299 332 34 202 174 210 148 139 162 168 131 308 329 263 270 215 328 32 75 53 359 1 9 217 349 34 235 321 330 116 106 96 73 52
320 313 212 215 281 341 39 54 156 231 255 298 316 351 177 147 244 157 139 203 267 98 92 119 323 197 23 167 185 86 137 149 190 217 265 325 347 279 295 214 102 130 117 139 90
320 340 239 256 194 42 75 90 206 212 296 348 328 5 241 230 158 143 187 199 203 162 166 158 267 314 260 192 135 185 106 179 102 22 46 271 285 15 46 51 115 106 39 135 146
334 347 269 112 150 78 81 223 231 230 327 21 18 341 318 270 158 154 180 211 214 183 161 202 293 255 295 96 58 151 157 73 21 163 264 312 269 213 179 155 112 129 228 231 196
22 34 278 156 90 50 165 230 279 261 334 1 274 289 270 276 188 181 199 273 202 179 127 134 107 282 18 309 167 63 68 49 112 122 157 156 276 217 190 185 181 162 190 338 304
355 56 329 24 60 23 178 212 284 304 355 308 253 238 256 293 315 166 211 221 203 151 160 198 150 225 235 284 291 127 139 125 119 236 100 138 272 246 247 203 179 184 183 214 140
53 272 327 79 125 295 292 286 264 271 243 259 285 274 291 277 251 233 233 255 354 161 167 174 242 327 341 354 4 83 75 109 118 84 177 121 264 17 295 227 217 203 193 217 207
70 56 332 51 135 146 357 273 252 248 242 207 240 282 273 350 30 306 335 350 353 70 74 98 117 163 198 201 183 126 90 72 107 98 181 220 258 220 231 237 260 226 218 169 45
27 331 172 306 313 278 183 269 305 312 272 196 245 228 220 36 15 359 320 345 348 14 71 106 123 150 147 164 143 117 98 154 157 170 140 246 215 280 214 211 241 307 353 45 152
67 27 355 280 309 308 170 266 226 260 228 294 204 161 133 144 194 167 292 20 346 333 45 350 135 112 43 77 115 123 34 89 89 110 173 113 233 256 205 143 254 328 334 317 302
321 335 114 291 342 31 253 285 274 323 229 220 228 115 115 190 189 227 218 136 25 339 27 44 118 93 176 315 111 25 13 102 94 51 135 277 226 258 106 161 222 218 251 279 294